owner,sensor,date,latitude,longitude,vertical_datum,sea_water_practical_salinity,qcFlag 
SCCF RECON,ioos:station:SCCF:16:1,2008-07-01T00:00:00Z,26.4345,-81.9647,2.203,36.85,1111122 
SCCF RECON,ioos:station:SCCF:16:1,2008-07-01T01:00:00Z,26.4345,-81.9647,2.389,37.06,1111122 
SCCF RECON,ioos:station:SCCF:16:1,2008-07-01T02:00:00Z,26.4345,-81.9647,2.494,37.44,1111122 
SCCF RECON,ioos:station:SCCF:16:1,2008-07-01T03:00:00Z,26.4345,-81.9647,2.565,37.33,1111122 
SCCF RECON,ioos:station:SCCF:16:1,2008-07-01T04:00:00Z,26.4345,-81.9647,2.683,37.39,1111122 
SCCF RECON,ioos:station:SCCF:16:1,2008-07-01T05:00:00Z,26.4345,-81.9647,2.662,37.38,1111122 
SCCF RECON,ioos:station:SCCF:16:1,2008-07-01T06:00:00Z,26.4345,-81.9647,2.645,37.36,1111122 
SCCF RECON,ioos:station:SCCF:16:1,2008-07-01T07:00:00Z,26.4345,-81.9647,2.497,37.28,1111122 
SCCF RECON,ioos:station:SCCF:16:1,2008-07-01T08:00:00Z,26.4345,-81.9647,2.477,37.12,1111122 
SCCF RECON,ioos:station:SCCF:16:1,2008-07-01T09:00:00Z,26.4345,-81.9647,2.444,36.93,1111122 
SCCF RECON,ioos:station:SCCF:16:1,2008-07-01T10:00:00Z,26.4345,-81.9647,2.484,36.94,1111122 
SCCF RECON,ioos:station:SCCF:16:1,2008-07-01T11:00:00Z,26.4345,-81.9647,2.673,36.98,1111122 
SCCF RECON,ioos:station:SCCF:16:1,2008-07-01T12:00:00Z,26.4345,-81.9647,2.867,37.26,1111122 
SCCF RECON,ioos:station:SCCF:16:1,2008-07-01T13:00:00Z,26.4345,-81.9647,2.936,37.31,1111122 
SCCF RECON,ioos:station:SCCF:16:1,2008-07-01T14:00:00Z,26.4345,-81.9647,2.956,37.34,1111122 
SCCF RECON,ioos:station:SCCF:16:1,2008-07-01T15:00:00Z,26.4345,-81.9647,2.975,37.33,1111122 
SCCF RECON,ioos:station:SCCF:16:1,2008-07-01T16:00:00Z,26.4345,-81.9647,2.929,37.27,1111122 
SCCF RECON,ioos:station:SCCF:16:1,2008-07-01T17:00:00Z,26.4345,-81.9647,2.815,37.24,1111122 
SCCF RECON,ioos:station:SCCF:16:1,2008-07-01T18:00:00Z,26.4345,-81.9647,2.606,37.14,1111122 
SCCF RECON,ioos:station:SCCF:16:1,2008-07-01T19:00:00Z,26.4345,-81.9647,2.36,37.15,1111122 
SCCF RECON,ioos:station:SCCF:16:1,2008-07-01T20:00:00Z,26.4345,-81.9647,2.077,37.07,1111122 
SCCF RECON,ioos:station:SCCF:16:1,2008-07-01T21:00:00Z,26.4345,-81.9647,1.865,37.09,1111122 
SCCF RECON,ioos:station:SCCF:16:1,2008-07-01T22:00:00Z,26.4345,-81.9647,1.718,36.88,1111122 
SCCF RECON,ioos:station:SCCF:16:1,2008-07-01T23:00:00Z,26.4345,-81.9647,1.718,36.77,1111122 
SCCF RECON,ioos:station:SCCF:16:1,2008-07-02T00:00:00Z,26.4345,-81.9647,1.896,36.82,1111122 
SCCF RECON,ioos:station:SCCF:16:1,2008-07-02T01:00:00Z,26.4345,-81.9647,2.189,36.51,1111122 
SCCF RECON,ioos:station:SCCF:16:1,2008-07-02T02:00:00Z,26.4345,-81.9647,2.352,36.53,1111122 
SCCF RECON,ioos:station:SCCF:16:1,2008-07-02T03:00:00Z,26.4345,-81.9647,2.457,36.71,1111122 
SCCF RECON,ioos:station:SCCF:16:1,2008-07-02T04:00:00Z,26.4345,-81.9647,2.604,37.04,1111122 
SCCF RECON,ioos:station:SCCF:16:1,2008-07-02T05:00:00Z,26.4345,-81.9647,2.782,37.19,1111122 
SCCF RECON,ioos:station:SCCF:16:1,2008-07-02T06:00:00Z,26.4345,-81.9647,2.594,37.2,1111122 
SCCF RECON,ioos:station:SCCF:16:1,2008-07-02T07:00:00Z,26.4345,-81.9647,2.629,37.14,1111122 
SCCF RECON,ioos:station:SCCF:16:1,2008-07-02T08:00:00Z,26.4345,-81.9647,2.568,37.1,1111122 
SCCF RECON,ioos:station:SCCF:16:1,2008-07-02T09:00:00Z,26.4345,-81.9647,2.576,36.98,1111122 
SCCF RECON,ioos:station:SCCF:16:1,2008-07-02T10:00:00Z,26.4345,-81.9647,2.503,37.06,1111122 
SCCF RECON,ioos:station:SCCF:16:1,2008-07-02T11:00:00Z,26.4345,-81.9647,2.53,37.01,1111122 
SCCF RECON,ioos:station:SCCF:16:1,2008-07-02T12:00:00Z,26.4345,-81.9647,2.656,37.01,1111122 
SCCF RECON,ioos:station:SCCF:16:1,2008-07-02T13:00:00Z,26.4345,-81.9647,2.836,37.15,1111122 
SCCF RECON,ioos:station:SCCF:16:1,2008-07-02T14:00:00Z,26.4345,-81.9647,2.952,37.24,1111122 
SCCF RECON,ioos:station:SCCF:16:1,2008-07-02T16:00:00Z,26.4345,-81.9647,2.994,37.27,1111122 
SCCF RECON,ioos:station:SCCF:16:1,2008-07-02T17:00:00Z,26.4345,-81.9647,2.945,37.22,1111122 
SCCF RECON,ioos:station:SCCF:16:1,2008-07-02T18:00:00Z,26.4345,-81.9647,2.823,37.17,1111122 
SCCF RECON,ioos:station:SCCF:16:1,2008-07-02T19:00:00Z,26.4345,-81.9647,2.513,37.06,1111122 
SCCF RECON,ioos:station:SCCF:16:1,2008-07-02T20:00:00Z,26.4345,-81.9647,2.277,37.03,1111122 
SCCF RECON,ioos:station:SCCF:16:1,2008-07-02T21:00:00Z,26.4345,-81.9647,2.042,37.03,1111122 
SCCF RECON,ioos:station:SCCF:16:1,2008-07-02T22:00:00Z,26.4345,-81.9647,1.795,36.74,1111122 
SCCF RECON,ioos:station:SCCF:16:1,2008-07-02T23:00:00Z,26.4345,-81.9647,1.676,36.63,1111122 
SCCF RECON,ioos:station:SCCF:16:1,2008-07-03T00:00:00Z,26.4345,-81.9647,1.686,36.79,1111122 
SCCF RECON,ioos:station:SCCF:16:1,2008-07-03T01:00:00Z,26.4345,-81.9647,1.923,37.05,1111122 
SCCF RECON,ioos:station:SCCF:16:1,2008-07-03T02:00:00Z,26.4345,-81.9647,2.174,36.88,1111122 
SCCF RECON,ioos:station:SCCF:16:1,2008-07-03T03:00:00Z,26.4345,-81.9647,2.342,37.2,1111122 
SCCF RECON,ioos:station:SCCF:16:1,2008-07-03T04:00:00Z,26.4345,-81.9647,2.519,37.22,1111122 
SCCF RECON,ioos:station:SCCF:16:1,2008-07-03T05:00:00Z,26.4345,-81.9647,2.701,37.27,1111122 
SCCF RECON,ioos:station:SCCF:16:1,2008-07-03T06:00:00Z,26.4345,-81.9647,2.673,37.14,1111122 
SCCF RECON,ioos:station:SCCF:16:1,2008-07-03T07:00:00Z,26.4345,-81.9647,2.633,37.09,1111122 
SCCF RECON,ioos:station:SCCF:16:1,2008-07-03T08:00:00Z,26.4345,-81.9647,2.565,37.07,1111122 
SCCF RECON,ioos:station:SCCF:16:1,2008-07-03T09:00:00Z,26.4345,-81.9647,2.47,37.04,1111122 
SCCF RECON,ioos:station:SCCF:16:1,2008-07-03T10:00:00Z,26.4345,-81.9647,2.436,36.97,1111122 
SCCF RECON,ioos:station:SCCF:16:1,2008-07-03T11:00:00Z,26.4345,-81.9647,2.528,36.95,1111122 
SCCF RECON,ioos:station:SCCF:16:1,2008-07-03T12:00:00Z,26.4345,-81.9647,2.561,37.0,1111122 
SCCF RECON,ioos:station:SCCF:16:1,2008-07-03T13:00:00Z,26.4345,-81.9647,2.657,37.02,1111122 
SCCF RECON,ioos:station:SCCF:16:1,2008-07-03T14:00:00Z,26.4345,-81.9647,2.894,37.15,1111122 
SCCF RECON,ioos:station:SCCF:16:1,2008-07-03T15:00:00Z,26.4345,-81.9647,3.002,37.12,1111122 
SCCF RECON,ioos:station:SCCF:16:1,2008-07-03T16:00:00Z,26.4345,-81.9647,3.016,37.06,1111122 
SCCF RECON,ioos:station:SCCF:16:1,2008-07-03T17:00:00Z,26.4345,-81.9647,3.079,36.99,1111122 
SCCF RECON,ioos:station:SCCF:16:1,2008-07-03T18:00:00Z,26.4345,-81.9647,3.008,36.95,1111122 
SCCF RECON,ioos:station:SCCF:16:1,2008-07-03T19:00:00Z,26.4345,-81.9647,2.793,36.92,1111122 
SCCF RECON,ioos:station:SCCF:16:1,2008-07-03T20:00:00Z,26.4345,-81.9647,2.565,36.93,1111122 
SCCF RECON,ioos:station:SCCF:16:1,2008-07-03T21:00:00Z,26.4345,-81.9647,2.314,36.96,1111122 
SCCF RECON,ioos:station:SCCF:16:1,2008-07-03T22:00:00Z,26.4345,-81.9647,2.075,37.01,1111122 
SCCF RECON,ioos:station:SCCF:16:1,2008-07-03T23:00:00Z,26.4345,-81.9647,1.818,37.11,1111122 
SCCF RECON,ioos:station:SCCF:16:1,2008-07-04T00:00:00Z,26.4345,-81.9647,1.716,36.8,1111122 
SCCF RECON,ioos:station:SCCF:16:1,2008-07-04T01:00:00Z,26.4345,-81.9647,1.832,37.07,1111122 
SCCF RECON,ioos:station:SCCF:16:1,2008-07-04T02:00:00Z,26.4345,-81.9647,2.131,37.24,1111122 
SCCF RECON,ioos:station:SCCF:16:1,2008-07-04T03:00:00Z,26.4345,-81.9647,2.232,37.23,1111122 
SCCF RECON,ioos:station:SCCF:16:1,2008-07-04T04:00:00Z,26.4345,-81.9647,2.395,36.82,1111122 
SCCF RECON,ioos:station:SCCF:16:1,2008-07-04T05:00:00Z,26.4345,-81.9647,2.531,36.94,1111122 
SCCF RECON,ioos:station:SCCF:16:1,2008-07-04T06:00:00Z,26.4345,-81.9647,2.611,37.03,1111122 
SCCF RECON,ioos:station:SCCF:16:1,2008-07-04T07:00:00Z,26.4345,-81.9647,2.664,37.21,1111122 
SCCF RECON,ioos:station:SCCF:16:1,2008-07-04T08:00:00Z,26.4345,-81.9647,2.597,37.2,1111122 
SCCF RECON,ioos:station:SCCF:16:1,2008-07-04T09:00:00Z,26.4345,-81.9647,2.521,37.19,1111122 
SCCF RECON,ioos:station:SCCF:16:1,2008-07-04T10:00:00Z,26.4345,-81.9647,2.453,37.04,1111122 
SCCF RECON,ioos:station:SCCF:16:1,2008-07-04T11:00:00Z,26.4345,-81.9647,2.407,37.01,1111122 
SCCF RECON,ioos:station:SCCF:16:1,2008-07-04T12:00:00Z,26.4345,-81.9647,2.406,37.01,1111122 
SCCF RECON,ioos:station:SCCF:16:1,2008-07-04T13:00:00Z,26.4345,-81.9647,2.495,37.0,1111122 
SCCF RECON,ioos:station:SCCF:16:1,2008-07-04T14:00:00Z,26.4345,-81.9647,2.684,37.05,1111122 
SCCF RECON,ioos:station:SCCF:16:1,2008-07-04T15:00:00Z,26.4345,-81.9647,2.835,37.25,1111122 
SCCF RECON,ioos:station:SCCF:16:1,2008-07-04T16:00:00Z,26.4345,-81.9647,2.948,37.26,1111122 
SCCF RECON,ioos:station:SCCF:16:1,2008-07-04T17:00:00Z,26.4345,-81.9647,3.0,37.24,1111122 
SCCF RECON,ioos:station:SCCF:16:1,2008-07-04T18:00:00Z,26.4345,-81.9647,3.013,37.15,1111122 
SCCF RECON,ioos:station:SCCF:16:1,2008-07-04T19:00:00Z,26.4345,-81.9647,2.946,37.15,1111122 
SCCF RECON,ioos:station:SCCF:16:1,2008-07-04T20:00:00Z,26.4345,-81.9647,2.799,37.13,1111122 
SCCF RECON,ioos:station:SCCF:16:1,2008-07-04T21:00:00Z,26.4345,-81.9647,2.556,37.11,1111122 
SCCF RECON,ioos:station:SCCF:16:1,2008-07-04T22:00:00Z,26.4345,-81.9647,2.304,37.08,1111122 
SCCF RECON,ioos:station:SCCF:16:1,2008-07-04T23:00:00Z,26.4345,-81.9647,2.095,37.06,1111122 
SCCF RECON,ioos:station:SCCF:16:1,2008-07-05T00:00:00Z,26.4345,-81.9647,1.895,37.03,1111122 
SCCF RECON,ioos:station:SCCF:16:1,2008-07-05T01:00:00Z,26.4345,-81.9647,1.843,36.9,1111122 
SCCF RECON,ioos:station:SCCF:16:1,2008-07-05T02:00:00Z,26.4345,-81.9647,1.969,37.02,1111122 
SCCF RECON,ioos:station:SCCF:16:1,2008-07-05T03:00:00Z,26.4345,-81.9647,2.281,37.18,1111122 
SCCF RECON,ioos:station:SCCF:16:1,2008-07-05T04:00:00Z,26.4345,-81.9647,2.403,36.85,1111122 
SCCF RECON,ioos:station:SCCF:16:1,2008-07-05T05:00:00Z,26.4345,-81.9647,2.548,37.15,1111122 
SCCF RECON,ioos:station:SCCF:16:1,2008-07-05T06:00:00Z,26.4345,-81.9647,2.72,37.25,1111122 
SCCF RECON,ioos:station:SCCF:16:1,2008-07-05T07:00:00Z,26.4345,-81.9647,2.672,37.38,1111122 
SCCF RECON,ioos:station:SCCF:16:1,2008-07-05T08:00:00Z,26.4345,-81.9647,2.719,37.28,1111122 
SCCF RECON,ioos:station:SCCF:16:1,2008-07-05T09:00:00Z,26.4345,-81.9647,2.684,37.2,1111122 
SCCF RECON,ioos:station:SCCF:16:1,2008-07-05T10:00:00Z,26.4345,-81.9647,2.57,37.16,1111122 
SCCF RECON,ioos:station:SCCF:16:1,2008-07-05T11:00:00Z,26.4345,-81.9647,2.485,37.06,1111122 
SCCF RECON,ioos:station:SCCF:16:1,2008-07-05T12:00:00Z,26.4345,-81.9647,2.456,36.98,1111122 
SCCF RECON,ioos:station:SCCF:16:1,2008-07-05T13:00:00Z,26.4345,-81.9647,2.472,36.83,1111122 
SCCF RECON,ioos:station:SCCF:16:1,2008-07-05T14:00:00Z,26.4345,-81.9647,2.542,37.15,1111122 
SCCF RECON,ioos:station:SCCF:16:1,2008-07-05T15:00:00Z,26.4345,-81.9647,2.676,37.09,1111122 
SCCF RECON,ioos:station:SCCF:16:1,2008-07-05T16:00:00Z,26.4345,-81.9647,2.859,37.01,1111122 
SCCF RECON,ioos:station:SCCF:16:1,2008-07-05T17:00:00Z,26.4345,-81.9647,2.949,37.22,1111122 
SCCF RECON,ioos:station:SCCF:16:1,2008-07-05T18:00:00Z,26.4345,-81.9647,2.992,37.25,1111122 
SCCF RECON,ioos:station:SCCF:16:1,2008-07-05T19:00:00Z,26.4345,-81.9647,2.981,37.24,1111122 
SCCF RECON,ioos:station:SCCF:16:1,2008-07-05T20:00:00Z,26.4345,-81.9647,2.887,37.24,1111122 
SCCF RECON,ioos:station:SCCF:16:1,2008-07-05T21:00:00Z,26.4345,-81.9647,2.812,37.22,1111122 
SCCF RECON,ioos:station:SCCF:16:1,2008-07-05T22:00:00Z,26.4345,-81.9647,2.605,37.01,1111122 
SCCF RECON,ioos:station:SCCF:16:1,2008-07-05T23:00:00Z,26.4345,-81.9647,2.282,36.85,1111122 
SCCF RECON,ioos:station:SCCF:16:1,2008-07-06T00:00:00Z,26.4345,-81.9647,2.09,36.56,1111122 
SCCF RECON,ioos:station:SCCF:16:1,2008-07-06T01:00:00Z,26.4345,-81.9647,1.929,36.67,1111122 
SCCF RECON,ioos:station:SCCF:16:1,2008-07-06T02:00:00Z,26.4345,-81.9647,1.911,36.94,1111122 
SCCF RECON,ioos:station:SCCF:16:1,2008-07-06T03:00:00Z,26.4345,-81.9647,2.078,37.06,1111122 
SCCF RECON,ioos:station:SCCF:16:1,2008-07-06T04:00:00Z,26.4345,-81.9647,2.377,37.22,1111122 
SCCF RECON,ioos:station:SCCF:16:1,2008-07-06T05:00:00Z,26.4345,-81.9647,2.552,37.19,1111122 
SCCF RECON,ioos:station:SCCF:16:1,2008-07-06T06:00:00Z,26.4345,-81.9647,2.676,37.06,1111122 
SCCF RECON,ioos:station:SCCF:16:1,2008-07-06T07:00:00Z,26.4345,-81.9647,2.764,37.06,1111122 
SCCF RECON,ioos:station:SCCF:16:1,2008-07-06T08:00:00Z,26.4345,-81.9647,2.787,36.9,1111122 
SCCF RECON,ioos:station:SCCF:16:1,2008-07-06T09:00:00Z,26.4345,-81.9647,2.737,36.79,1111122 
SCCF RECON,ioos:station:SCCF:16:1,2008-07-06T10:00:00Z,26.4345,-81.9647,2.653,36.71,1111122 
SCCF RECON,ioos:station:SCCF:16:1,2008-07-06T11:00:00Z,26.4345,-81.9647,2.552,36.65,1111122 
SCCF RECON,ioos:station:SCCF:16:1,2008-07-06T12:00:00Z,26.4345,-81.9647,2.487,36.64,1111122 
SCCF RECON,ioos:station:SCCF:16:1,2008-07-06T13:00:00Z,26.4345,-81.9647,2.401,36.77,1111122 
SCCF RECON,ioos:station:SCCF:16:1,2008-07-06T14:00:00Z,26.4345,-81.9647,2.413,36.69,1111122 
SCCF RECON,ioos:station:SCCF:16:1,2008-07-06T15:00:00Z,26.4345,-81.9647,2.51,36.8,1111122 
SCCF RECON,ioos:station:SCCF:16:1,2008-07-06T16:00:00Z,26.4345,-81.9647,2.665,36.83,1111122 
SCCF RECON,ioos:station:SCCF:16:1,2008-07-06T17:00:00Z,26.4345,-81.9647,2.815,36.67,1111122 
SCCF RECON,ioos:station:SCCF:16:1,2008-07-06T18:00:00Z,26.4345,-81.9647,2.87,36.76,1111122 
SCCF RECON,ioos:station:SCCF:16:1,2008-07-06T19:00:00Z,26.4345,-81.9647,2.902,36.69,1111122 
SCCF RECON,ioos:station:SCCF:16:1,2008-07-06T20:00:00Z,26.4345,-81.9647,2.954,36.66,1111122 
SCCF RECON,ioos:station:SCCF:16:1,2008-07-06T21:00:00Z,26.4345,-81.9647,2.812,36.68,1111122 
SCCF RECON,ioos:station:SCCF:16:1,2008-07-06T22:00:00Z,26.4345,-81.9647,2.643,36.63,1111122 
SCCF RECON,ioos:station:SCCF:16:1,2008-07-06T23:00:00Z,26.4345,-81.9647,2.536,36.59,1111122 
SCCF RECON,ioos:station:SCCF:16:1,2008-07-07T00:00:00Z,26.4345,-81.9647,2.354,36.65,1111122 
SCCF RECON,ioos:station:SCCF:16:1,2008-07-07T01:00:00Z,26.4345,-81.9647,2.191,36.56,1111122 
SCCF RECON,ioos:station:SCCF:16:1,2008-07-07T02:00:00Z,26.4345,-81.9647,2.107,36.74,1111122 
SCCF RECON,ioos:station:SCCF:16:1,2008-07-07T03:00:00Z,26.4345,-81.9647,2.073,36.78,1111122 
SCCF RECON,ioos:station:SCCF:16:1,2008-07-07T04:00:00Z,26.4345,-81.9647,2.262,36.86,1111122 
SCCF RECON,ioos:station:SCCF:16:1,2008-07-07T05:00:00Z,26.4345,-81.9647,2.513,36.98,1111122 
SCCF RECON,ioos:station:SCCF:16:1,2008-07-07T06:00:00Z,26.4345,-81.9647,2.69,36.95,1111122 
SCCF RECON,ioos:station:SCCF:16:1,2008-07-07T07:00:00Z,26.4345,-81.9647,2.758,36.83,1111122 
SCCF RECON,ioos:station:SCCF:16:1,2008-07-07T08:00:00Z,26.4345,-81.9647,2.81,36.79,1111122 
SCCF RECON,ioos:station:SCCF:16:1,2008-07-07T09:00:00Z,26.4345,-81.9647,2.802,36.73,1111122 
SCCF RECON,ioos:station:SCCF:16:1,2008-07-07T10:00:00Z,26.4345,-81.9647,2.741,36.68,1111122 
SCCF RECON,ioos:station:SCCF:16:1,2008-07-07T11:00:00Z,26.4345,-81.9647,2.634,36.65,1111122 
SCCF RECON,ioos:station:SCCF:16:1,2008-07-07T12:00:00Z,26.4345,-81.9647,2.544,36.65,1111122 
SCCF RECON,ioos:station:SCCF:16:1,2008-07-07T13:00:00Z,26.4345,-81.9647,2.507,36.68,1111122 
SCCF RECON,ioos:station:SCCF:16:1,2008-07-07T14:00:00Z,26.4345,-81.9647,2.463,36.62,1111122 
SCCF RECON,ioos:station:SCCF:16:1,2008-07-07T15:00:00Z,26.4345,-81.9647,2.468,36.74,1111122 
SCCF RECON,ioos:station:SCCF:16:1,2008-07-07T16:00:00Z,26.4345,-81.9647,2.539,36.76,1111122 
SCCF RECON,ioos:station:SCCF:16:1,2008-07-07T17:00:00Z,26.4345,-81.9647,2.65,36.75,1111122 
SCCF RECON,ioos:station:SCCF:16:1,2008-07-07T18:00:00Z,26.4345,-81.9647,2.75,36.6,1111122 
SCCF RECON,ioos:station:SCCF:16:1,2008-07-07T19:00:00Z,26.4345,-81.9647,2.795,36.63,1111122 
SCCF RECON,ioos:station:SCCF:16:1,2008-07-07T20:00:00Z,26.4345,-81.9647,2.862,36.65,1111122 
SCCF RECON,ioos:station:SCCF:16:1,2008-07-07T21:00:00Z,26.4345,-81.9647,2.754,36.6,1111122 
SCCF RECON,ioos:station:SCCF:16:1,2008-07-07T22:00:00Z,26.4345,-81.9647,2.769,36.57,1111122 
SCCF RECON,ioos:station:SCCF:16:1,2008-07-07T23:00:00Z,26.4345,-81.9647,2.658,36.55,1111122 
SCCF RECON,ioos:station:SCCF:16:1,2008-07-08T00:00:00Z,26.4345,-81.9647,2.515,36.53,1111122 
SCCF RECON,ioos:station:SCCF:16:1,2008-07-08T01:00:00Z,26.4345,-81.9647,2.4,36.55,1111122 
SCCF RECON,ioos:station:SCCF:16:1,2008-07-08T02:00:00Z,26.4345,-81.9647,2.374,36.49,1111122 
SCCF RECON,ioos:station:SCCF:16:1,2008-07-08T03:00:00Z,26.4345,-81.9647,2.149,36.4,1111122 
SCCF RECON,ioos:station:SCCF:16:1,2008-07-08T04:00:00Z,26.4345,-81.9647,2.083,36.62,1111122 
SCCF RECON,ioos:station:SCCF:16:1,2008-07-08T05:00:00Z,26.4345,-81.9647,2.336,36.61,1111122 
SCCF RECON,ioos:station:SCCF:16:1,2008-07-08T06:00:00Z,26.4345,-81.9647,2.569,36.65,1111122 
SCCF RECON,ioos:station:SCCF:16:1,2008-07-08T07:00:00Z,26.4345,-81.9647,2.669,36.62,1111122 
SCCF RECON,ioos:station:SCCF:16:1,2008-07-08T08:00:00Z,26.4345,-81.9647,2.745,36.65,1111122 
SCCF RECON,ioos:station:SCCF:16:1,2008-07-08T09:00:00Z,26.4345,-81.9647,2.788,36.61,1111122 
SCCF RECON,ioos:station:SCCF:16:1,2008-07-08T10:00:00Z,26.4345,-81.9647,2.746,36.56,1111122 
SCCF RECON,ioos:station:SCCF:16:1,2008-07-08T11:00:00Z,26.4345,-81.9647,2.722,36.51,1111122 
SCCF RECON,ioos:station:SCCF:16:1,2008-07-08T12:00:00Z,26.4345,-81.9647,2.654,36.48,1111122 
SCCF RECON,ioos:station:SCCF:16:1,2008-07-08T13:00:00Z,26.4345,-81.9647,2.52,36.44,1111122 
SCCF RECON,ioos:station:SCCF:16:1,2008-07-08T14:00:00Z,26.4345,-81.9647,2.396,36.44,1111122 
SCCF RECON,ioos:station:SCCF:16:1,2008-07-08T15:00:00Z,26.4345,-81.9647,2.348,36.48,1111122 
SCCF RECON,ioos:station:SCCF:16:1,2008-07-08T16:00:00Z,26.4345,-81.9647,2.364,36.49,1111122 
SCCF RECON,ioos:station:SCCF:16:1,2008-07-08T17:00:00Z,26.4345,-81.9647,2.455,36.61,1111122 
SCCF RECON,ioos:station:SCCF:16:1,2008-07-08T18:00:00Z,26.4345,-81.9647,2.57,36.64,1111122 
SCCF RECON,ioos:station:SCCF:16:1,2008-07-08T19:00:00Z,26.4345,-81.9647,2.713,36.47,1111122 
SCCF RECON,ioos:station:SCCF:16:1,2008-07-08T20:00:00Z,26.4345,-81.9647,2.742,36.46,1111122 
SCCF RECON,ioos:station:SCCF:16:1,2008-07-08T21:00:00Z,26.4345,-81.9647,2.787,36.42,1111122 
SCCF RECON,ioos:station:SCCF:16:1,2008-07-08T22:00:00Z,26.4345,-81.9647,2.767,36.44,1111122 
SCCF RECON,ioos:station:SCCF:16:1,2008-07-08T23:00:00Z,26.4345,-81.9647,2.708,36.41,1111122 
SCCF RECON,ioos:station:SCCF:16:1,2008-07-09T00:00:00Z,26.4345,-81.9647,2.622,36.37,1111122 
SCCF RECON,ioos:station:SCCF:16:1,2008-07-09T01:00:00Z,26.4345,-81.9647,2.51,36.31,1111122 
SCCF RECON,ioos:station:SCCF:16:1,2008-07-09T02:00:00Z,26.4345,-81.9647,2.38,36.35,1111122 
SCCF RECON,ioos:station:SCCF:16:1,2008-07-09T03:00:00Z,26.4345,-81.9647,2.322,36.37,1111122 
SCCF RECON,ioos:station:SCCF:16:1,2008-07-09T04:00:00Z,26.4345,-81.9647,2.344,36.44,1111122 
SCCF RECON,ioos:station:SCCF:16:1,2008-07-09T05:00:00Z,26.4345,-81.9647,2.394,36.54,1111122 
SCCF RECON,ioos:station:SCCF:16:1,2008-07-09T06:00:00Z,26.4345,-81.9647,2.531,36.57,1111122 
SCCF RECON,ioos:station:SCCF:16:1,2008-07-09T07:00:00Z,26.4345,-81.9647,2.69,36.58,1111122 
SCCF RECON,ioos:station:SCCF:16:1,2008-07-09T08:00:00Z,26.4345,-81.9647,2.755,36.48,1111122 
SCCF RECON,ioos:station:SCCF:16:1,2008-07-09T09:00:00Z,26.4345,-81.9647,2.775,36.43,1111122 
SCCF RECON,ioos:station:SCCF:16:1,2008-07-09T10:00:00Z,26.4345,-81.9647,2.774,36.36,1111122 
SCCF RECON,ioos:station:SCCF:16:1,2008-07-09T11:00:00Z,26.4345,-81.9647,2.757,36.33,1111122 
SCCF RECON,ioos:station:SCCF:16:1,2008-07-09T12:00:00Z,26.4345,-81.9647,2.708,36.34,1111122 
SCCF RECON,ioos:station:SCCF:16:1,2008-07-09T13:00:00Z,26.4345,-81.9647,2.621,36.33,1111122 
SCCF RECON,ioos:station:SCCF:16:1,2008-07-09T14:00:00Z,26.4345,-81.9647,2.522,36.3,1111122 
SCCF RECON,ioos:station:SCCF:16:1,2008-07-09T15:00:00Z,26.4345,-81.9647,2.41,36.36,1111122 
SCCF RECON,ioos:station:SCCF:16:1,2008-07-09T16:00:00Z,26.4345,-81.9647,2.332,36.3,1111122 
SCCF RECON,ioos:station:SCCF:16:1,2008-07-09T17:00:00Z,26.4345,-81.9647,2.303,36.33,1111122 
SCCF RECON,ioos:station:SCCF:16:1,2008-07-09T18:00:00Z,26.4345,-81.9647,2.381,36.48,1111122 
SCCF RECON,ioos:station:SCCF:16:1,2008-07-09T19:00:00Z,26.4345,-81.9647,2.509,36.52,1111122 
SCCF RECON,ioos:station:SCCF:16:1,2008-07-09T20:00:00Z,26.4345,-81.9647,2.602,36.55,1111122 
SCCF RECON,ioos:station:SCCF:16:1,2008-07-09T21:00:00Z,26.4345,-81.9647,2.676,36.55,1111122 
SCCF RECON,ioos:station:SCCF:16:1,2008-07-09T22:00:00Z,26.4345,-81.9647,2.675,36.58,1111122 
SCCF RECON,ioos:station:SCCF:16:1,2008-07-09T23:00:00Z,26.4345,-81.9647,2.712,36.54,1111122 
SCCF RECON,ioos:station:SCCF:16:1,2008-07-10T00:00:00Z,26.4345,-81.9647,2.602,36.5,1111122 
SCCF RECON,ioos:station:SCCF:16:1,2008-07-10T01:00:00Z,26.4345,-81.9647,2.622,36.48,1111122 
SCCF RECON,ioos:station:SCCF:16:1,2008-07-10T02:00:00Z,26.4345,-81.9647,2.524,36.53,1111122 
SCCF RECON,ioos:station:SCCF:16:1,2008-07-10T03:00:00Z,26.4345,-81.9647,2.49,36.57,1111122 
SCCF RECON,ioos:station:SCCF:16:1,2008-07-10T04:00:00Z,26.4345,-81.9647,2.504,36.3,1111122 
SCCF RECON,ioos:station:SCCF:16:1,2008-07-10T05:00:00Z,26.4345,-81.9647,2.485,36.25,1111122 
SCCF RECON,ioos:station:SCCF:16:1,2008-07-10T06:00:00Z,26.4345,-81.9647,2.572,36.16,1111122 
SCCF RECON,ioos:station:SCCF:16:1,2008-07-10T07:00:00Z,26.4345,-81.9647,2.632,36.23,1111122 
SCCF RECON,ioos:station:SCCF:16:1,2008-07-10T08:00:00Z,26.4345,-81.9647,2.684,36.18,1111122 
SCCF RECON,ioos:station:SCCF:16:1,2008-07-10T09:00:00Z,26.4345,-81.9647,2.781,36.27,1111122 
SCCF RECON,ioos:station:SCCF:16:1,2008-07-10T10:00:00Z,26.4345,-81.9647,2.853,36.46,1111122 
SCCF RECON,ioos:station:SCCF:16:1,2008-07-10T11:00:00Z,26.4345,-81.9647,2.862,36.53,1111122 
SCCF RECON,ioos:station:SCCF:16:1,2008-07-10T12:00:00Z,26.4345,-81.9647,2.831,36.51,1111122 
SCCF RECON,ioos:station:SCCF:16:1,2008-07-10T13:00:00Z,26.4345,-81.9647,2.732,36.5,1111122 
SCCF RECON,ioos:station:SCCF:16:1,2008-07-10T14:00:00Z,26.4345,-81.9647,2.626,36.5,1111122 
SCCF RECON,ioos:station:SCCF:16:1,2008-07-10T15:00:00Z,26.4345,-81.9647,2.52,36.46,1111122 
SCCF RECON,ioos:station:SCCF:16:1,2008-07-10T16:00:00Z,26.4345,-81.9647,2.386,36.33,1111122 
SCCF RECON,ioos:station:SCCF:16:1,2008-07-10T17:00:00Z,26.4345,-81.9647,2.327,36.22,1111122 
SCCF RECON,ioos:station:SCCF:16:1,2008-07-10T18:00:00Z,26.4345,-81.9647,2.33,36.23,1111122 
SCCF RECON,ioos:station:SCCF:16:1,2008-07-10T19:00:00Z,26.4345,-81.9647,2.374,36.34,1111122 
SCCF RECON,ioos:station:SCCF:16:1,2008-07-10T20:00:00Z,26.4345,-81.9647,2.46,36.47,1111122 
SCCF RECON,ioos:station:SCCF:16:1,2008-07-10T21:00:00Z,26.4345,-81.9647,2.541,36.55,1111122 
SCCF RECON,ioos:station:SCCF:16:1,2008-07-10T22:00:00Z,26.4345,-81.9647,2.569,36.53,1111122 
SCCF RECON,ioos:station:SCCF:16:1,2008-07-10T23:00:00Z,26.4345,-81.9647,2.651,36.51,1111122 
SCCF RECON,ioos:station:SCCF:16:1,2008-07-11T00:00:00Z,26.4345,-81.9647,2.661,36.51,1111122 
SCCF RECON,ioos:station:SCCF:16:1,2008-07-11T01:00:00Z,26.4345,-81.9647,2.673,36.57,1111122 
SCCF RECON,ioos:station:SCCF:16:1,2008-07-11T02:00:00Z,26.4345,-81.9647,2.639,36.45,1111122 
SCCF RECON,ioos:station:SCCF:16:1,2008-07-11T03:00:00Z,26.4345,-81.9647,2.631,36.45,1111122 
SCCF RECON,ioos:station:SCCF:16:1,2008-07-11T04:00:00Z,26.4345,-81.9647,2.593,36.45,1111122 
SCCF RECON,ioos:station:SCCF:16:1,2008-07-11T05:00:00Z,26.4345,-81.9647,2.58,36.46,1111122 
SCCF RECON,ioos:station:SCCF:16:1,2008-07-11T06:00:00Z,26.4345,-81.9647,2.574,36.46,1111122 
SCCF RECON,ioos:station:SCCF:16:1,2008-07-11T07:00:00Z,26.4345,-81.9647,2.628,36.46,1111122 
SCCF RECON,ioos:station:SCCF:16:1,2008-07-11T08:00:00Z,26.4345,-81.9647,2.686,36.47,1111122 
SCCF RECON,ioos:station:SCCF:16:1,2008-07-11T09:00:00Z,26.4345,-81.9647,2.803,36.56,1111122 
SCCF RECON,ioos:station:SCCF:16:1,2008-07-11T10:00:00Z,26.4345,-81.9647,2.855,36.68,1111122 
SCCF RECON,ioos:station:SCCF:16:1,2008-07-11T11:00:00Z,26.4345,-81.9647,2.848,36.66,1111122 
SCCF RECON,ioos:station:SCCF:16:1,2008-07-11T12:00:00Z,26.4345,-81.9647,2.849,36.65,1111122 
SCCF RECON,ioos:station:SCCF:16:1,2008-07-11T13:00:00Z,26.4345,-81.9647,2.831,36.63,1111122 
SCCF RECON,ioos:station:SCCF:16:1,2008-07-11T14:00:00Z,26.4345,-81.9647,2.731,36.62,1111122 
SCCF RECON,ioos:station:SCCF:16:1,2008-07-11T15:00:00Z,26.4345,-81.9647,2.626,36.63,1111122 
SCCF RECON,ioos:station:SCCF:16:1,2008-07-11T16:00:00Z,26.4345,-81.9647,2.48,36.63,1111122 
SCCF RECON,ioos:station:SCCF:16:1,2008-07-11T17:00:00Z,26.4345,-81.9647,2.361,36.45,1111122 